• In Moldova, Republic
  • List of Countries
  • For 7 days
  • Water Temperature
  • Satellite Maps
  • Weather Map
  • Weather Widgets
  • user-avatar
    Login

    Hourly Weather Panovo

    Today, 15 August, Wednesday

    Time Temperature Precipitation Wind Pressure Humidity
    00:00 +18°C° 0.2 mm 1 mps 740 mmHg 92%
    01:00 +18°C° 0.2 mm 1 mps 740 mmHg 94%
    02:00 +18°C° 0 mm 1 mps 739 mmHg 97%
    03:00 +18°C° 0.9 mm 1 mps 738 mmHg 97%
    04:00 +18°C° 0.9 mm 1 mps 738 mmHg 97%
    05:00 +18°C° 0.9 mm 1 mps 738 mmHg 98%
    06:00 +18°C° 0.3 mm 2 mps 738 mmHg 96%
    07:00 +19°C° 0.3 mm 2 mps 738 mmHg 94%
    08:00 +19°C° 0 mm 2 mps 738 mmHg 91%
    09:00 +20°C° 0.1 mm 3 mps 738 mmHg 89%
    10:00 +20°C° 0.1 mm 3 mps 739 mmHg 87%
    11:00 +20°C° 0.1 mm 4 mps 739 mmHg 84%
    12:00 +20°C° 0.1 mm 4 mps 739 mmHg 81%
    13:00 +20°C° 0.1 mm 4 mps 739 mmHg 77%
    14:00 +21°C° 0 mm 4 mps 740 mmHg 71%
    15:00 +22°C° 0.2 mm 4 mps 740 mmHg 72%
    16:00 +22°C° 0.2 mm 3 mps 740 mmHg 73%
    17:00 +22°C° 0.2 mm 3 mps 740 mmHg 74%
    18:00 +20°C° 0.2 mm 2 mps 741 mmHg 81%
    19:00 +19°C° 0.2 mm 2 mps 741 mmHg 88%
    20:00 +18°C° 0.2 mm 1 mps 741 mmHg 95%
    21:00 +18°C° 0 mm 1 mps 741 mmHg 96%
    22:00 +16°C° 0 mm 1 mps 742 mmHg 97%
    23:00 +16°C° 0 mm 1 mps 742 mmHg 97%

    Tomorrow, 16 August, Thursday

    Time Temperature Precipitation Wind Pressure Humidity
    00:00 +16°C° 0 mm 1 mps 742 mmHg 98%
    01:00 +15°C° 0 mm 1 mps 743 mmHg 98%
    02:00 +15°C° 0 mm 1 mps 743 mmHg 98%
    03:00 +15°C° 0 mm 1 mps 743 mmHg 98%
    04:00 +15°C° 0 mm 1 mps 744 mmHg 98%
    05:00 +15°C° 0 mm 1 mps 744 mmHg 98%
    06:00 +15°C° 0 mm 1 mps 744 mmHg 96%
    07:00 +16°C° 0 mm 1 mps 745 mmHg 95%
    08:00 +18°C° 0 mm 1 mps 745 mmHg 93%
    09:00 +18°C° 0.1 mm 1 mps 745 mmHg 90%
    10:00 +19°C° 0.1 mm 1 mps 746 mmHg 87%
    11:00 +19°C° 0.1 mm 1 mps 746 mmHg 84%
    12:00 +20°C° 0 mm 1 mps 746 mmHg 81%
    13:00 +20°C° 0 mm 1 mps 746 mmHg 78%
    14:00 +21°C° 0 mm 1 mps 747 mmHg 75%
    15:00 +21°C° 0 mm 1 mps 747 mmHg 74%
    16:00 +21°C° 0 mm 1 mps 747 mmHg 73%
    17:00 +21°C° 0 mm 1 mps 747 mmHg 73%
    18:00 +20°C° 0 mm 1 mps 747 mmHg 79%
    19:00 +18°C° 0 mm 1 mps 747 mmHg 86%
    20:00 +16°C° 0 mm 1 mps 747 mmHg 93%
    21:00 +15°C° 0 mm 1 mps 748 mmHg 94%
    22:00 +14°C° 0 mm 1 mps 748 mmHg 95%
    23:00 +14°C° 0 mm 1 mps 748 mmHg 96%

    Day after tomorrow, 17 August, Friday

    Time Temperature Precipitation Wind Pressure Humidity
    00:00 +14°C° 0 mm 1 mps 748 mmHg 96%
    01:00 +13°C° 0 mm 1 mps 748 mmHg 96%
    02:00 +13°C° 0 mm 1 mps 749 mmHg 96%
    03:00 +13°C° 0 mm 1 mps 749 mmHg 96%
    04:00 +13°C° 0 mm 1 mps 749 mmHg 97%
    05:00 +13°C° 0 mm 1 mps 749 mmHg 97%
    06:00 +15°C° 0 mm 1 mps 749 mmHg 92%
    07:00 +16°C° 0 mm 1 mps 749 mmHg 87%
    08:00 +19°C° 0 mm 1 mps 749 mmHg 81%
    09:00 +20°C° 0 mm 2 mps 749 mmHg 74%
    10:00 +21°C° 0 mm 2 mps 749 mmHg 67%
    11:00 +24°C° 0 mm 2 mps 749 mmHg 59%
    12:00 +24°C° 0 mm 2 mps 749 mmHg 58%
    13:00 +25°C° 0 mm 2 mps 749 mmHg 56%
    14:00 +25°C° 0 mm 2 mps 749 mmHg 55%
    15:00 +25°C° 0 mm 2 mps 748 mmHg 57%
    16:00 +25°C° 0 mm 2 mps 748 mmHg 59%
    17:00 +25°C° 0 mm 1 mps 748 mmHg 62%
    18:00 +23°C° 0 mm 1 mps 748 mmHg 68%
    19:00 +21°C° 0 mm 1 mps 748 mmHg 75%
    20:00 +19°C° 0 mm 1 mps 748 mmHg 81%
    21:00 +19°C° 0 mm 1 mps 748 mmHg 84%
    22:00 +17°C° 0 mm 2 mps 748 mmHg 86%
    23:00 +16°C° 0 mm 2 mps 748 mmHg 89%

    18 August, Saturday

    Time Temperature Precipitation Wind Pressure Humidity
    00:00 +16°C° 0 mm 2 mps 748 mmHg 90%
    01:00 +15°C° 0 mm 2 mps 748 mmHg 92%
    02:00 +15°C° 0 mm 2 mps 748 mmHg 93%
    03:00 +15°C° 0 mm 2 mps 748 mmHg 94%
    04:00 +14°C° 0 mm 2 mps 748 mmHg 95%
    05:00 +14°C° 0 mm 2 mps 748 mmHg 95%
    06:00 +16°C° 0 mm 2 mps 748 mmHg 89%
    07:00 +18°C° 0 mm 2 mps 748 mmHg 82%
    08:00 +19°C° 0 mm 2 mps 749 mmHg 75%
    09:00 +21°C° 0 mm 2 mps 748 mmHg 69%
    10:00 +24°C° 0 mm 2 mps 748 mmHg 64%
    11:00 +25°C° 0 mm 3 mps 748 mmHg 58%
    12:00 +26°C° 0 mm 3 mps 748 mmHg 56%
    13:00 +27°C° 0 mm 3 mps 748 mmHg 54%
    14:00 +27°C° 0 mm 3 mps 747 mmHg 51%
    15:00 +27°C° 0.1 mm 3 mps 747 mmHg 54%
    16:00 +27°C° 0.1 mm 3 mps 747 mmHg 56%
    17:00 +27°C° 0.1 mm 2 mps 747 mmHg 59%
    18:00 +25°C° 0 mm 2 mps 746 mmHg 67%
    19:00 +23°C° 0 mm 2 mps 746 mmHg 74%
    20:00 +20°C° 0 mm 2 mps 746 mmHg 82%
    21:00 +19°C° 0 mm 2 mps 746 mmHg 85%
    22:00 +19°C° 0 mm 2 mps 746 mmHg 88%
    23:00 +18°C° 0 mm 2 mps 746 mmHg 92%

    19 August, Sunday

    Time Temperature Precipitation Wind Pressure Humidity
    00:00 +18°C° 0 mm 2 mps 746 mmHg 93%
    01:00 +17°C° 0 mm 2 mps 746 mmHg 94%
    02:00 +17°C° 0 mm 2 mps 745 mmHg 95%
    03:00 +16°C° 0.1 mm 2 mps 745 mmHg 96%
    04:00 +16°C° 0.1 mm 2 mps 745 mmHg 96%
    05:00 +16°C° 0.1 mm 2 mps 745 mmHg 97%
    06:00 +17°C° 0 mm 2 mps 745 mmHg 94%
    07:00 +19°C° 0 mm 2 mps 745 mmHg 90%
    08:00 +20°C° 0 mm 2 mps 745 mmHg 86%
    09:00 +21°C° 0.3 mm 2 mps 745 mmHg 81%
    10:00 +23°C° 0.3 mm 2 mps 745 mmHg 76%
    11:00 +25°C° 0.3 mm 3 mps 745 mmHg 71%
    12:00 +25°C° 0.2 mm 3 mps 745 mmHg 66%
    13:00 +26°C° 0.2 mm 3 mps 744 mmHg 61%
    14:00 +27°C° 0.2 mm 4 mps 744 mmHg 56%
    15:00 +26°C° 0.1 mm 3 mps 744 mmHg 57%
    16:00 +25°C° 0.1 mm 3 mps 744 mmHg 58%
    17:00 +25°C° 0.1 mm 3 mps 744 mmHg 59%
    18:00 +22°C° 0 mm 3 mps 744 mmHg 66%
    19:00 +20°C° 0 mm 2 mps 745 mmHg 73%
    20:00 +18°C° 0 mm 2 mps 745 mmHg 80%
    21:00 +17°C° 0 mm 2 mps 745 mmHg 83%
    22:00 +17°C° 0 mm 2 mps 745 mmHg 87%
    23:00 +16°C° 0 mm 1 mps 745 mmHg 91%

    20 August, Monday

    Time Temperature Precipitation Wind Pressure Humidity
    00:00 +16°C° 0 mm 1 mps 745 mmHg 92%
    01:00 +16°C° 0 mm 1 mps 745 mmHg 93%
    02:00 +15°C° 0 mm 1 mps 746 mmHg 93%
    03:00 +15°C° 0 mm 1 mps 746 mmHg 93%
    04:00 +15°C° 0 mm 1 mps 746 mmHg 93%
    05:00 +14°C° 0 mm 1 mps 746 mmHg 93%
    06:00 +15°C° 0 mm 1 mps 746 mmHg 88%
    07:00 +16°C° 0 mm 1 mps 746 mmHg 83%
    08:00 +16°C° 0 mm 1 mps 747 mmHg 79%
    09:00 +19°C° 0 mm 1 mps 747 mmHg 71%
    10:00 +20°C° 0 mm 1 mps 747 mmHg 64%
    11:00 +21°C° 0 mm 1 mps 747 mmHg 56%
    12:00 +22°C° 0 mm 1 mps 747 mmHg 54%
    13:00 +22°C° 0 mm 1 mps 746 mmHg 52%
    14:00 +22°C° 0 mm 1 mps 746 mmHg 49%
    15:00 +22°C° 0 mm 1 mps 746 mmHg 50%
    16:00 +22°C° 0 mm 1 mps 746 mmHg 51%
    17:00 +22°C° 0 mm 1 mps 746 mmHg 52%
    18:00 +20°C° 0 mm 1 mps 746 mmHg 58%
    19:00 +18°C° 0 mm 1 mps 746 mmHg 65%
    20:00 +16°C° 0 mm 1 mps 746 mmHg 71%
    21:00 +15°C° 0 mm 1 mps 745 mmHg 74%
    22:00 +14°C° 0 mm 1 mps 745 mmHg 76%
    23:00 +14°C° 0 mm 1 mps 745 mmHg 79%
    Show more